PRIVATE WETTERSTATION BILLIGHEIM-ALLFELD                       ZURCK
Wetterdaten: Donnerstag, 19.05.2022
Datum Zeit Temp. A. Temp. A. min Temp. A. max Feuchte A. Luftdruck Regen Wind Richtung Richtung Sonnenschein ET Solar Taupunkt Windchill Windben Empfang
19.05.2022 00:00 19,6 C 19,6 C 19,8 C 65 % 1019,7 hPa 0,0 l/m 0,0 km/h (0 Bft) O 90 0 min 0,025 mm 0 W/m 12,8 C 19,6 C 1,6 km/h (1 Bft) 100 %
19.05.2022 00:10 19,4 C 19,4 C 19,6 C 65 % 1019,7 hPa 0,0 l/m 0,0 km/h (0 Bft) N 0 0 min 0,000 mm 0 W/m 12,6 C 19,4 C 0,0 km/h (0 Bft) 100 %
19.05.2022 00:20 19,2 C 19,2 C 19,4 C 66 % 1019,8 hPa 0,0 l/m 0,0 km/h (0 Bft) O 90 0 min 0,000 mm 0 W/m 12,7 C 19,2 C 1,6 km/h (1 Bft) 100 %
19.05.2022 00:30 19,1 C 19,1 C 19,2 C 66 % 1019,8 hPa 0,0 l/m 0,0 km/h (0 Bft) O 90 0 min 0,000 mm 0 W/m 12,6 C 19,1 C 4,8 km/h (1 Bft) 99 %
19.05.2022 00:40 18,9 C 18,9 C 19,1 C 66 % 1019,9 hPa 0,0 l/m 0,0 km/h (0 Bft) N 0 0 min 0,000 mm 0 W/m 12,4 C 18,9 C 0,0 km/h (0 Bft) 100 %
19.05.2022 00:50 18,9 C 18,9 C 18,9 C 66 % 1019,9 hPa 0,0 l/m 0,0 km/h (0 Bft) N 0 0 min 0,000 mm 0 W/m 12,4 C 18,9 C 0,0 km/h (0 Bft) 100 %
19.05.2022 01:00 18,7 C 18,7 C 18,9 C 67 % 1019,9 hPa 0,0 l/m 0,0 km/h (0 Bft) N 0 0 min 0,025 mm 0 W/m 12,4 C 18,7 C 0,0 km/h (0 Bft) 99 %
19.05.2022 01:10 18,4 C 18,4 C 18,7 C 67 % 1019,8 hPa 0,0 l/m 0,0 km/h (0 Bft) N 0 0 min 0,000 mm 0 W/m 12,2 C 18,4 C 0,0 km/h (0 Bft) 100 %
19.05.2022 01:20 18,2 C 18,2 C 18,4 C 67 % 1019,7 hPa 0,0 l/m 0,0 km/h (0 Bft) N 0 0 min 0,000 mm 0 W/m 12,0 C 18,2 C 0,0 km/h (0 Bft) 100 %
19.05.2022 01:30 18,1 C 18,1 C 18,2 C 68 % 1019,8 hPa 0,0 l/m 0,0 km/h (0 Bft) N 0 0 min 0,000 mm 0 W/m 12,1 C 18,1 C 0,0 km/h (0 Bft) 100 %
19.05.2022 01:40 18,0 C 18,0 C 18,1 C 67 % 1019,7 hPa 0,0 l/m 0,0 km/h (0 Bft) N 0 0 min 0,000 mm 0 W/m 11,8 C 18,0 C 0,0 km/h (0 Bft) 100 %
19.05.2022 01:50 17,9 C 17,9 C 18,0 C 67 % 1019,6 hPa 0,0 l/m 0,0 km/h (0 Bft) O 90 0 min 0,000 mm 0 W/m 11,7 C 17,9 C 4,8 km/h (1 Bft) 100 %
19.05.2022 02:00 17,9 C 17,9 C 17,9 C 67 % 1019,6 hPa 0,0 l/m 0,0 km/h (0 Bft) O 90 0 min 0,025 mm 0 W/m 11,7 C 17,9 C 6,4 km/h (2 Bft) 100 %
19.05.2022 02:10 17,7 C 17,7 C 17,9 C 68 % 1019,5 hPa 0,0 l/m 0,0 km/h (0 Bft) O 90 0 min 0,000 mm 0 W/m 11,7 C 17,7 C 1,6 km/h (1 Bft) 100 %
19.05.2022 02:20 17,5 C 17,5 C 17,7 C 68 % 1019,4 hPa 0,0 l/m 0,0 km/h (0 Bft) O-SO 112 0 min 0,000 mm 0 W/m 11,5 C 17,5 C 1,6 km/h (1 Bft) 100 %
19.05.2022 02:30 17,4 C 17,4 C 17,5 C 68 % 1019,3 hPa 0,0 l/m 0,0 km/h (0 Bft) O-NO 67 0 min 0,000 mm 0 W/m 11,4 C 17,4 C 8,0 km/h (2 Bft) 100 %
19.05.2022 02:40 17,4 C 17,4 C 17,4 C 68 % 1019,2 hPa 0,0 l/m 0,0 km/h (0 Bft) O-SO 112 0 min 0,000 mm 0 W/m 11,4 C 17,4 C 1,6 km/h (1 Bft) 100 %
19.05.2022 02:50 17,4 C 17,4 C 17,4 C 68 % 1019,2 hPa 0,0 l/m 0,0 km/h (0 Bft) O 90 0 min 0,000 mm 0 W/m 11,4 C 17,4 C 4,8 km/h (1 Bft) 100 %
19.05.2022 03:00 17,1 C 17,1 C 17,4 C 69 % 1019,2 hPa 0,0 l/m 0,0 km/h (0 Bft) O-SO 112 0 min 0,025 mm 0 W/m 11,4 C 17,1 C 4,8 km/h (1 Bft) 100 %
19.05.2022 03:10 16,6 C 16,6 C 17,1 C 71 % 1019,2 hPa 0,0 l/m 0,0 km/h (0 Bft) O-NO 67 0 min 0,000 mm 0 W/m 11,3 C 16,6 C 1,6 km/h (1 Bft) 100 %
19.05.2022 03:20 16,3 C 16,3 C 16,6 C 73 % 1019,2 hPa 0,0 l/m 0,0 km/h (0 Bft) N 0 0 min 0,000 mm 0 W/m 11,4 C 16,3 C 0,0 km/h (0 Bft) 100 %
19.05.2022 03:30 15,8 C 15,8 C 16,3 C 74 % 1019,2 hPa 0,0 l/m 0,0 km/h (0 Bft) N 0 0 min 0,000 mm 0 W/m 11,2 C 15,8 C 0,0 km/h (0 Bft) 100 %
19.05.2022 03:40 15,4 C 15,4 C 15,8 C 75 % 1019,1 hPa 0,0 l/m 0,0 km/h (0 Bft) N 0 0 min 0,000 mm 0 W/m 11,0 C 15,4 C 0,0 km/h (0 Bft) 100 %
19.05.2022 03:50 15,1 C 15,1 C 15,3 C 76 % 1018,9 hPa 0,0 l/m 0,0 km/h (0 Bft) N 0 0 min 0,000 mm 0 W/m 10,9 C 15,1 C 0,0 km/h (0 Bft) 100 %
19.05.2022 04:00 14,8 C 14,8 C 15,1 C 77 % 1018,9 hPa 0,0 l/m 0,0 km/h (0 Bft) O 90 0 min 0,025 mm 0 W/m 10,8 C 14,8 C 4,8 km/h (1 Bft) 100 %
19.05.2022 04:10 14,7 C 14,7 C 14,8 C 78 % 1018,8 hPa 0,0 l/m 0,0 km/h (0 Bft) O 90 0 min 0,000 mm 0 W/m 10,9 C 14,7 C 6,4 km/h (2 Bft) 100 %
19.05.2022 04:20 14,5 C 14,5 C 14,7 C 77 % 1018,9 hPa 0,0 l/m 0,0 km/h (0 Bft) O 90 0 min 0,000 mm 0 W/m 10,5 C 14,5 C 1,6 km/h (1 Bft) 100 %
19.05.2022 04:30 14,3 C 14,3 C 14,5 C 78 % 1018,9 hPa 0,0 l/m 0,0 km/h (0 Bft) N 0 0 min 0,000 mm 0 W/m 10,5 C 14,3 C 0,0 km/h (0 Bft) 100 %
19.05.2022 04:40 14,2 C 14,2 C 14,3 C 77 % 1018,9 hPa 0,0 l/m 0,0 km/h (0 Bft) N 0 0 min 0,000 mm 0 W/m 10,2 C 14,2 C 0,0 km/h (0 Bft) 99 %
19.05.2022 04:50 14,1 C 14,1 C 14,2 C 78 % 1018,9 hPa 0,0 l/m 0,0 km/h (0 Bft) N-NO 22 0 min 0,000 mm 0 W/m 10,3 C 14,1 C 4,8 km/h (1 Bft) 100 %
19.05.2022 05:00 13,9 C 13,9 C 14,1 C 78 % 1018,9 hPa 0,0 l/m 0,0 km/h (0 Bft) N 360 0 min 0,025 mm 0 W/m 10,1 C 13,9 C 1,6 km/h (1 Bft) 99 %
19.05.2022 05:10 13,7 C 13,7 C 13,9 C 78 % 1018,8 hPa 0,0 l/m 0,0 km/h (0 Bft) N 0 0 min 0,000 mm 0 W/m 9,9 C 13,7 C 0,0 km/h (0 Bft) 91 %
19.05.2022 05:20 13,7 C 13,7 C 13,7 C 78 % 1018,8 hPa 0,0 l/m 0,0 km/h (0 Bft) N 0 0 min 0,000 mm 0 W/m 9,9 C 13,7 C 0,0 km/h (0 Bft) 100 %
19.05.2022 05:30 13,4 C 13,4 C 13,7 C 79 % 1018,9 hPa 0,0 l/m 0,0 km/h (0 Bft) N 0 0 min 0,000 mm 0 W/m 9,8 C 13,4 C 0,0 km/h (0 Bft) 100 %
19.05.2022 05:40 13,2 C 13,2 C 13,4 C 80 % 1018,9 hPa 0,0 l/m 0,0 km/h (0 Bft) N 0 0 min 0,000 mm 0 W/m 9,8 C 13,2 C 0,0 km/h (0 Bft) 100 %
19.05.2022 05:50 13,1 C 13,1 C 13,2 C 80 % 1019,0 hPa 0,0 l/m 0,0 km/h (0 Bft) N 360 0 min 0,000 mm 9 W/m 9,7 C 13,1 C 3,2 km/h (1 Bft) 100 %
19.05.2022 06:00 13,1 C 13,0 C 13,1 C 80 % 1018,9 hPa 0,0 l/m 0,0 km/h (0 Bft) N 360 0 min 0,000 mm 16 W/m 9,7 C 13,1 C 3,2 km/h (1 Bft) 99 %
19.05.2022 06:10 13,2 C 13,0 C 13,2 C 79 % 1018,8 hPa 0,0 l/m 0,0 km/h (0 Bft) NO 45 0 min 0,000 mm 23 W/m 9,6 C 13,2 C 1,6 km/h (1 Bft) 100 %
19.05.2022 06:20 13,9 C 13,2 C 13,9 C 75 % 1018,9 hPa 0,0 l/m 0,0 km/h (0 Bft) O-SO 112 0 min 0,000 mm 32 W/m 9,5 C 13,9 C 4,8 km/h (1 Bft) 100 %
19.05.2022 06:30 14,4 C 13,9 C 14,4 C 73 % 1018,8 hPa 0,0 l/m 0,0 km/h (0 Bft) O-SO 112 0 min 0,000 mm 42 W/m 9,6 C 14,4 C 11,3 km/h (2 Bft) 99 %
19.05.2022 06:40 14,7 C 14,4 C 14,7 C 71 % 1018,8 hPa 0,0 l/m 1,6 km/h (1 Bft) S-SO 157 0 min 0,000 mm 51 W/m 9,5 C 14,7 C 14,5 km/h (3 Bft) 99 %
19.05.2022 06:50 15,1 C 14,7 C 15,1 C 70 % 1019,0 hPa 0,0 l/m 0,0 km/h (0 Bft) O 90 0 min 0,000 mm 58 W/m 9,7 C 15,1 C 11,3 km/h (2 Bft) 98 %
19.05.2022 07:00 15,2 C 15,1 C 15,2 C 70 % 1019,1 hPa 0,0 l/m 0,0 km/h (0 Bft) N-NO 22 0 min 0,025 mm 65 W/m 9,8 C 15,2 C 1,6 km/h (1 Bft) 97 %
19.05.2022 07:10 15,3 C 15,2 C 15,3 C 71 % 1018,9 hPa 0,0 l/m 0,0 km/h (0 Bft) O 90 0 min 0,000 mm 72 W/m 10,1 C 15,3 C 8,0 km/h (2 Bft) 97 %
19.05.2022 07:20 15,4 C 15,3 C 15,4 C 68 % 1019,0 hPa 0,0 l/m 0,0 km/h (0 Bft) O-NO 67 0 min 0,000 mm 76 W/m 9,5 C 15,4 C 4,8 km/h (1 Bft) 97 %
19.05.2022 07:30 15,6 C 15,4 C 15,6 C 70 % 1019,1 hPa 0,0 l/m 0,0 km/h (0 Bft) O-SO 112 0 min 0,000 mm 77 W/m 10,1 C 15,6 C 9,7 km/h (2 Bft) 97 %
19.05.2022 07:40 15,7 C 15,6 C 15,7 C 69 % 1019,2 hPa 0,0 l/m 0,0 km/h (0 Bft) N 0 0 min 0,000 mm 79 W/m 10,0 C 15,7 C 0,0 km/h (0 Bft) 97 %
19.05.2022 07:50 15,7 C 15,7 C 15,8 C 71 % 1019,2 hPa 0,0 l/m 0,0 km/h (0 Bft) N 0 0 min 0,000 mm 77 W/m 10,5 C 15,7 C 0,0 km/h (0 Bft) 98 %
19.05.2022 08:00 15,7 C 15,7 C 15,8 C 72 % 1019,3 hPa 0,0 l/m 0,0 km/h (0 Bft) N 0 0 min 0,051 mm 76 W/m 10,7 C 15,7 C 0,0 km/h (0 Bft) 98 %
19.05.2022 08:10 15,8 C 15,7 C 15,8 C 71 % 1019,3 hPa 0,0 l/m 0,0 km/h (0 Bft) N 0 0 min 0,000 mm 76 W/m 10,6 C 15,8 C 0,0 km/h (0 Bft) 97 %
19.05.2022 08:20 16,1 C 15,8 C 16,1 C 70 % 1019,2 hPa 0,0 l/m 0,0 km/h (0 Bft) N 0 10 min 0,000 mm 385 W/m 10,6 C 16,1 C 0,0 km/h (0 Bft) 97 %
19.05.2022 08:30 16,8 C 16,1 C 16,8 C 69 % 1019,2 hPa 0,0 l/m 0,0 km/h (0 Bft) O-NO 67 10 min 0,000 mm 401 W/m 11,1 C 16,8 C 1,6 km/h (1 Bft) 98 %
19.05.2022 08:40 17,7 C 16,9 C 17,7 C 65 % 1019,2 hPa 0,0 l/m 0,0 km/h (0 Bft) N 0 10 min 0,000 mm 448 W/m 11,0 C 17,7 C 0,0 km/h (0 Bft) 97 %
19.05.2022 08:50 18,6 C 17,7 C 18,6 C 65 % 1019,3 hPa 0,0 l/m 0,0 km/h (0 Bft) N 0 10 min 0,000 mm 476 W/m 11,9 C 18,6 C 0,0 km/h (0 Bft) 98 %
19.05.2022 09:00 19,4 C 18,6 C 19,4 C 62 % 1019,3 hPa 0,0 l/m 0,0 km/h (0 Bft) N 0 10 min 0,178 mm 519 W/m 11,9 C 19,4 C 0,0 km/h (0 Bft) 98 %
19.05.2022 09:10 20,1 C 19,4 C 20,1 C 61 % 1019,1 hPa 0,0 l/m 0,0 km/h (0 Bft) N 0 10 min 0,000 mm 545 W/m 12,3 C 20,1 C 0,0 km/h (0 Bft) 98 %
19.05.2022 09:20 20,9 C 20,1 C 20,9 C 58 % 1019,2 hPa 0,0 l/m 0,0 km/h (0 Bft) O 90 10 min 0,000 mm 559 W/m 12,3 C 20,9 C 1,6 km/h (1 Bft) 98 %
19.05.2022 09:30 21,3 C 20,9 C 21,3 C 59 % 1019,2 hPa 0,0 l/m 0,0 km/h (0 Bft) O-SO 112 10 min 0,000 mm 589 W/m 13,0 C 21,3 C 4,8 km/h (1 Bft) 97 %
19.05.2022 09:40 21,7 C 21,3 C 21,7 C 55 % 1019,1 hPa 0,0 l/m 0,0 km/h (0 Bft) SO 135 10 min 0,000 mm 615 W/m 12,3 C 21,7 C 8,0 km/h (2 Bft) 98 %
19.05.2022 09:50 22,2 C 21,8 C 22,2 C 53 % 1018,9 hPa 0,0 l/m 0,0 km/h (0 Bft) O-SO 112 10 min 0,000 mm 636 W/m 12,2 C 22,2 C 6,4 km/h (2 Bft) 97 %
19.05.2022 10:00 22,4 C 22,2 C 22,4 C 55 % 1019,0 hPa 0,0 l/m 0,0 km/h (0 Bft) N 0 10 min 0,356 mm 650 W/m 12,9 C 22,4 C 0,0 km/h (0 Bft) 98 %
19.05.2022 10:10 22,9 C 22,4 C 22,9 C 54 % 1019,1 hPa 0,0 l/m 0,0 km/h (0 Bft) SO 135 10 min 0,000 mm 673 W/m 13,1 C 22,9 C 3,2 km/h (1 Bft) 98 %
19.05.2022 10:20 23,0 C 22,9 C 23,0 C 54 % 1018,9 hPa 0,0 l/m 0,0 km/h (0 Bft) SO 135 10 min 0,000 mm 689 W/m 13,2 C 23,0 C 8,0 km/h (2 Bft) 97 %
19.05.2022 10:30 23,0 C 22,9 C 23,0 C 53 % 1019,2 hPa 0,0 l/m 0,0 km/h (0 Bft) S 180 10 min 0,000 mm 719 W/m 12,9 C 23,0 C 6,4 km/h (2 Bft) 98 %
19.05.2022 10:40 23,3 C 22,9 C 23,3 C 55 % 1019,0 hPa 0,0 l/m 0,0 km/h (0 Bft) S-SW 202 10 min 0,000 mm 742 W/m 13,7 C 23,3 C 4,8 km/h (1 Bft) 97 %
19.05.2022 10:50 23,5 C 23,3 C 23,6 C 54 % 1019,0 hPa 0,0 l/m 1,6 km/h (1 Bft) SO 135 10 min 0,000 mm 747 W/m 13,6 C 23,5 C 12,9 km/h (3 Bft) 98 %
19.05.2022 11:00 23,8 C 23,4 C 23,8 C 55 % 1018,9 hPa 0,0 l/m 1,6 km/h (1 Bft) S-SW 202 10 min 0,432 mm 791 W/m 14,2 C 23,8 C 8,0 km/h (2 Bft) 97 %
19.05.2022 11:10 23,8 C 23,8 C 23,9 C 53 % 1018,9 hPa 0,0 l/m 1,6 km/h (1 Bft) SW 225 10 min 0,000 mm 798 W/m 13,6 C 23,8 C 8,0 km/h (2 Bft) 97 %
19.05.2022 11:20 24,1 C 23,8 C 24,1 C 54 % 1018,8 hPa 0,0 l/m 0,0 km/h (0 Bft) SO 135 10 min 0,000 mm 798 W/m 14,2 C 24,1 C 9,7 km/h (2 Bft) 97 %
19.05.2022 11:30 24,4 C 24,1 C 24,4 C 54 % 1019,0 hPa 0,0 l/m 0,0 km/h (0 Bft) SO 135 10 min 0,000 mm 835 W/m 14,5 C 24,4 C 4,8 km/h (1 Bft) 97 %
19.05.2022 11:40 24,6 C 24,4 C 24,6 C 53 % 1018,8 hPa 0,0 l/m 1,6 km/h (1 Bft) S 180 10 min 0,000 mm 826 W/m 14,4 C 24,6 C 11,3 km/h (2 Bft) 98 %
19.05.2022 11:50 24,9 C 24,6 C 24,9 C 52 % 1018,9 hPa 0,0 l/m 0,0 km/h (0 Bft) S 180 10 min 0,000 mm 821 W/m 14,4 C 24,9 C 1,6 km/h (1 Bft) 97 %
19.05.2022 12:00 25,3 C 24,9 C 25,4 C 49 % 1018,9 hPa 0,0 l/m 0,0 km/h (0 Bft) S-SW 202 10 min 0,483 mm 882 W/m 13,8 C 25,3 C 4,8 km/h (1 Bft) 98 %
19.05.2022 12:10 25,5 C 25,3 C 25,5 C 51 % 1018,9 hPa 0,0 l/m 0,0 km/h (0 Bft) S 180 10 min 0,000 mm 856 W/m 14,6 C 25,5 C 8,0 km/h (2 Bft) 97 %
19.05.2022 12:30 26,0 C 25,3 C 26,0 C 52 % 1018,7 hPa 0,0 l/m 0,1 km/h (0 Bft) SW 234 20 min 0,000 mm 664 W/m 15,4 C 26,0 C 4,8 km/h (1 Bft) 100 %
19.05.2022 12:40 26,1 C 26,0 C 26,1 C 52 % 1018,6 hPa 0,0 l/m 0,9 km/h (0 Bft) SW 216 10 min 0,000 mm 559 W/m 15,5 C 26,1 C 9,7 km/h (2 Bft) 100 %
19.05.2022 12:50 26,3 C 26,1 C 26,3 C 52 % 1018,5 hPa 0,0 l/m 0,6 km/h (0 Bft) S-SO 151 10 min 0,000 mm 793 W/m 15,6 C 26,3 C 4,8 km/h (1 Bft) 100 %
19.05.2022 13:00 26,4 C 26,3 C 26,4 C 53 % 1018,3 hPa 0,0 l/m 0,8 km/h (0 Bft) SO 142 10 min 0,433 mm 838 W/m 16,0 C 26,4 C 6,4 km/h (2 Bft) 99 %
19.05.2022 13:10 26,6 C 26,4 C 26,6 C 52 % 1018,2 hPa 0,0 l/m 0,4 km/h (0 Bft) SW 229 10 min 0,000 mm 863 W/m 15,9 C 26,6 C 4,8 km/h (1 Bft) 100 %
19.05.2022 13:20 26,8 C 26,6 C 26,8 C 51 % 1018,2 hPa 0,0 l/m 1,3 km/h (1 Bft) S-SO 166 10 min 0,000 mm 703 W/m 15,8 C 26,8 C 8,0 km/h (2 Bft) 100 %
19.05.2022 13:30 27,0 C 26,8 C 27,0 C 51 % 1018,2 hPa 0,0 l/m 0,9 km/h (0 Bft) S-SW 198 10 min 0,000 mm 798 W/m 16,0 C 27,0 C 8,0 km/h (2 Bft) 100 %
19.05.2022 13:40 27,6 C 27,0 C 27,6 C 52 % 1018,1 hPa 0,0 l/m 0,1 km/h (0 Bft) W-NW 296 10 min 0,000 mm 821 W/m 16,8 C 27,6 C 4,8 km/h (1 Bft) 100 %
19.05.2022 13:50 27,8 C 27,6 C 27,9 C 53 % 1018,0 hPa 0,0 l/m 1,8 km/h (1 Bft) S 170 10 min 0,000 mm 782 W/m 17,3 C 27,8 C 12,9 km/h (3 Bft) 100 %
19.05.2022 14:00 27,8 C 27,7 C 27,8 C 50 % 1017,9 hPa 0,0 l/m 2,1 km/h (1 Bft) S-SW 211 10 min 0,534 mm 643 W/m 16,4 C 27,8 C 11,3 km/h (2 Bft) 100 %
19.05.2022 14:10 27,9 C 27,7 C 27,9 C 52 % 1017,9 hPa 0,0 l/m 0,4 km/h (0 Bft) SW 228 10 min 0,000 mm 824 W/m 17,1 C 27,9 C 6,4 km/h (2 Bft) 100 %
19.05.2022 14:20 28,4 C 27,9 C 28,4 C 51 % 1017,7 hPa 0,0 l/m 2,0 km/h (1 Bft) S-SW 207 10 min 0,000 mm 851 W/m 17,3 C 28,4 C 16,1 km/h (3 Bft) 100 %
19.05.2022 14:30 28,4 C 28,3 C 28,4 C 52 % 1017,6 hPa 0,0 l/m 1,7 km/h (1 Bft) S 187 10 min 0,000 mm 717 W/m 17,6 C 28,4 C 11,3 km/h (2 Bft) 100 %
19.05.2022 14:40 28,4 C 28,3 C 28,4 C 52 % 1017,5 hPa 0,0 l/m 1,1 km/h (1 Bft) S 186 10 min 0,000 mm 856 W/m 17,6 C 28,4 C 9,7 km/h (2 Bft) 100 %
19.05.2022 14:50 28,6 C 28,4 C 28,6 C 51 % 1017,4 hPa 0,0 l/m 0,9 km/h (0 Bft) S 184 10 min 0,000 mm 751 W/m 17,4 C 28,6 C 9,7 km/h (2 Bft) 100 %
19.05.2022 15:00 28,8 C 28,6 C 28,8 C 50 % 1017,4 hPa 0,0 l/m 2,2 km/h (1 Bft) S 178 10 min 0,533 mm 758 W/m 17,3 C 28,8 C 14,5 km/h (3 Bft) 100 %
19.05.2022 15:10 29,2 C 28,8 C 29,2 C 49 % 1017,4 hPa 0,0 l/m 0,1 km/h (0 Bft) SW 236 10 min 0,000 mm 849 W/m 17,4 C 29,2 C 4,8 km/h (1 Bft) 100 %
19.05.2022 15:20 29,8 C 29,2 C 29,8 C 48 % 1017,4 hPa 0,0 l/m 2,2 km/h (1 Bft) S-SW 193 10 min 0,000 mm 895 W/m 17,6 C 29,8 C 14,5 km/h (3 Bft) 100 %
19.05.2022 15:30 30,1 C 29,8 C 30,1 C 47 % 1017,2 hPa 0,0 l/m 3,9 km/h (1 Bft) S 188 10 min 0,000 mm 707 W/m 17,5 C 30,1 C 17,7 km/h (3 Bft) 100 %
19.05.2022 15:40 30,0 C 29,9 C 30,1 C 47 % 1017,0 hPa 0,0 l/m 2,7 km/h (1 Bft) W-NW 288 10 min 0,000 mm 721 W/m 17,4 C 30,0 C 9,7 km/h (2 Bft) 100 %
19.05.2022 15:50 30,4 C 30,0 C 30,4 C 47 % 1017,0 hPa 0,0 l/m 2,5 km/h (1 Bft) S-SW 211 10 min 0,000 mm 621 W/m 17,8 C 30,4 C 9,7 km/h (2 Bft) 100 %
19.05.2022 16:00 30,1 C 30,1 C 30,4 C 45 % 1016,9 hPa 0,0 l/m 0,7 km/h (0 Bft) W 261 10 min 0,483 mm 708 W/m 16,8 C 30,1 C 8,0 km/h (2 Bft) 100 %
19.05.2022 16:10 30,1 C 30,1 C 30,2 C 48 % 1016,9 hPa 0,0 l/m 1,1 km/h (1 Bft) SW 227 10 min 0,000 mm 380 W/m 17,9 C 30,1 C 9,7 km/h (2 Bft) 100 %
19.05.2022 16:20 30,4 C 30,0 C 30,4 C 49 % 1016,6 hPa 0,0 l/m 0,3 km/h (0 Bft) W-NW 287 10 min 0,000 mm 707 W/m 18,5 C 30,4 C 6,4 km/h (2 Bft) 100 %
19.05.2022 16:30 30,9 C 30,4 C 30,9 C 46 % 1016,5 hPa 0,0 l/m 1,4 km/h (1 Bft) SW 214 10 min 0,000 mm 617 W/m 17,9 C 30,9 C 11,3 km/h (2 Bft) 100 %
19.05.2022 16:40 30,7 C 30,7 C 30,9 C 46 % 1016,4 hPa 0,0 l/m 2,5 km/h (1 Bft) S-SW 207 10 min 0,000 mm 489 W/m 17,7 C 30,7 C 16,1 km/h (3 Bft) 100 %
19.05.2022 16:50 30,6 C 30,4 C 30,7 C 46 % 1016,3 hPa 0,0 l/m 0,3 km/h (0 Bft) SW 226 10 min 0,000 mm 476 W/m 17,6 C 30,6 C 8,0 km/h (2 Bft) 100 %
19.05.2022 17:00 30,3 C 30,3 C 30,6 C 47 % 1016,2 hPa 0,0 l/m 2,7 km/h (1 Bft) S-SW 204 10 min 0,381 mm 578 W/m 17,7 C 30,3 C 16,1 km/h (3 Bft) 99 %
19.05.2022 17:10 30,0 C 30,0 C 30,3 C 47 % 1016,2 hPa 0,0 l/m 3,5 km/h (1 Bft) S-SW 211 10 min 0,000 mm 492 W/m 17,4 C 30,0 C 16,1 km/h (3 Bft) 100 %
19.05.2022 17:20 29,9 C 29,9 C 30,0 C 49 % 1016,2 hPa 0,0 l/m 1,0 km/h (0 Bft) S 181 10 min 0,000 mm 570 W/m 18,0 C 29,9 C 9,7 km/h (2 Bft) 100 %
19.05.2022 17:30 30,1 C 29,9 C 30,1 C 48 % 1016,3 hPa 0,0 l/m 4,3 km/h (1 Bft) S-SW 211 10 min 0,000 mm 512 W/m 17,9 C 30,1 C 16,1 km/h (3 Bft) 100 %
19.05.2022 17:40 30,4 C 30,1 C 30,4 C 48 % 1016,4 hPa 0,0 l/m 0,8 km/h (0 Bft) W-SW 242 10 min 0,000 mm 483 W/m 18,1 C 30,4 C 8,0 km/h (2 Bft) 100 %
19.05.2022 17:50 30,7 C 30,4 C 30,7 C 48 % 1016,4 hPa 0,0 l/m 2,6 km/h (1 Bft) SW 226 10 min 0,000 mm 471 W/m 18,4 C 30,7 C 11,3 km/h (2 Bft) 100 %
19.05.2022 18:00 30,6 C 30,6 C 30,7 C 46 % 1016,5 hPa 0,0 l/m 4,5 km/h (1 Bft) S-SW 198 10 min 0,355 mm 336 W/m 17,6 C 30,6 C 14,5 km/h (3 Bft) 100 %
19.05.2022 18:10 30,1 C 30,1 C 30,6 C 46 % 1016,6 hPa 0,0 l/m 7,6 km/h (2 Bft) S 186 10 min 0,000 mm 411 W/m 17,2 C 30,0 C 22,5 km/h (4 Bft) 100 %
19.05.2022 18:20 30,0 C 30,0 C 30,1 C 47 % 1016,6 hPa 0,0 l/m 5,0 km/h (1 Bft) S-SW 206 10 min 0,000 mm 355 W/m 17,4 C 30,0 C 22,5 km/h (4 Bft) 100 %
19.05.2022 18:30 29,9 C 29,8 C 30,0 C 48 % 1016,4 hPa 0,0 l/m 3,9 km/h (1 Bft) W-NW 297 10 min 0,000 mm 315 W/m 17,7 C 29,9 C 19,3 km/h (3 Bft) 100 %
19.05.2022 18:40 30,1 C 29,9 C 30,2 C 46 % 1016,3 hPa 0,0 l/m 3,9 km/h (1 Bft) W 264 0 min 0,000 mm 141 W/m 17,2 C 30,1 C 12,9 km/h (3 Bft) 100 %
19.05.2022 18:50 29,8 C 29,8 C 30,1 C 47 % 1016,5 hPa 0,0 l/m 2,8 km/h (1 Bft) W 263 0 min 0,000 mm 128 W/m 17,2 C 29,8 C 11,3 km/h (2 Bft) 100 %
19.05.2022 19:00 29,4 C 29,4 C 29,8 C 49 % 1016,5 hPa 0,0 l/m 0,6 km/h (0 Bft) W 278 0 min 0,229 mm 72 W/m 17,5 C 29,4 C 6,4 km/h (2 Bft) 100 %
19.05.2022 19:10 28,9 C 28,9 C 29,4 C 49 % 1016,4 hPa 0,0 l/m 0,2 km/h (0 Bft) W 277 0 min 0,000 mm 74 W/m 17,1 C 28,9 C 3,2 km/h (1 Bft) 100 %
19.05.2022 19:20 28,6 C 28,6 C 28,9 C 51 % 1016,5 hPa 0,0 l/m 0,1 km/h (0 Bft) W 277 0 min 0,000 mm 74 W/m 17,4 C 28,6 C 3,2 km/h (1 Bft) 100 %
19.05.2022 19:30 28,0 C 28,0 C 28,6 C 55 % 1016,6 hPa 0,0 l/m 0,0 km/h (0 Bft) W 274 0 min 0,000 mm 84 W/m 18,1 C 28,0 C 3,2 km/h (1 Bft) 100 %
19.05.2022 19:40 27,5 C 27,5 C 28,0 C 55 % 1016,8 hPa 0,0 l/m 0,0 km/h (0 Bft) W 273 0 min 0,000 mm 58 W/m 17,6 C 27,5 C 0,0 km/h (0 Bft) 100 %
19.05.2022 19:50 27,2 C 27,2 C 27,5 C 55 % 1016,8 hPa 0,0 l/m 0,2 km/h (0 Bft) W-NW 288 0 min 0,000 mm 51 W/m 17,4 C 27,2 C 4,8 km/h (1 Bft) 99 %
19.05.2022 20:00 26,9 C 26,9 C 27,2 C 55 % 1016,8 hPa 0,0 l/m 2,3 km/h (1 Bft) W-NW 300 0 min 0,051 mm 56 W/m 17,1 C 26,9 C 8,0 km/h (2 Bft) 100 %
19.05.2022 20:10 26,8 C 26,8 C 26,9 C 54 % 1017,1 hPa 0,0 l/m 2,4 km/h (1 Bft) W-NW 286 0 min 0,000 mm 44 W/m 16,7 C 26,8 C 11,3 km/h (2 Bft) 100 %
19.05.2022 20:20 26,6 C 26,6 C 26,8 C 58 % 1017,2 hPa 0,0 l/m 0,4 km/h (0 Bft) S-SW 196 0 min 0,000 mm 25 W/m 17,6 C 26,6 C 8,0 km/h (2 Bft) 100 %
19.05.2022 20:30 25,8 C 25,8 C 26,6 C 57 % 1017,8 hPa 0,0 l/m 4,6 km/h (1 Bft) N-NW 341 0 min 0,000 mm 19 W/m 16,6 C 25,8 C 37,0 km/h (5 Bft) 100 %
19.05.2022 20:40 24,8 C 24,8 C 25,8 C 60 % 1018,2 hPa 0,0 l/m 3,4 km/h (1 Bft) N 360 0 min 0,000 mm 18 W/m 16,5 C 24,8 C 22,5 km/h (4 Bft) 100 %
19.05.2022 20:50 23,4 C 23,4 C 24,8 C 62 % 1018,4 hPa 0,0 l/m 0,4 km/h (0 Bft) N 349 0 min 0,000 mm 9 W/m 15,7 C 23,4 C 9,7 km/h (2 Bft) 100 %
19.05.2022 21:00 22,5 C 22,5 C 23,4 C 65 % 1018,4 hPa 0,0 l/m 0,4 km/h (0 Bft) NW 321 0 min 0,025 mm 0 W/m 15,6 C 22,5 C 6,4 km/h (2 Bft) 100 %
19.05.2022 21:10 21,9 C 21,9 C 22,5 C 67 % 1018,4 hPa 0,0 l/m 0,0 km/h (0 Bft) N 0 0 min 0,000 mm 0 W/m 15,5 C 21,9 C 0,0 km/h (0 Bft) 98 %
19.05.2022 21:20 21,3 C 21,3 C 21,9 C 69 % 1018,4 hPa 0,0 l/m 0,0 km/h (0 Bft) N 0 0 min 0,000 mm 0 W/m 15,4 C 21,3 C 0,0 km/h (0 Bft) 97 %
19.05.2022 21:30 20,8 C 20,8 C 21,3 C 71 % 1019,0 hPa 0,0 l/m 0,0 km/h (0 Bft) NW 315 0 min 0,000 mm 0 W/m 15,3 C 20,8 C 1,6 km/h (1 Bft) 98 %
19.05.2022 21:40 20,4 C 20,4 C 20,8 C 73 % 1019,5 hPa 0,0 l/m 0,0 km/h (0 Bft) NO 45 0 min 0,000 mm 0 W/m 15,4 C 20,4 C 1,6 km/h (1 Bft) 97 %
19.05.2022 21:50 20,2 C 20,2 C 20,4 C 74 % 1019,6 hPa 0,0 l/m 0,0 km/h (0 Bft) O-SO 112 0 min 0,000 mm 0 W/m 15,4 C 20,2 C 6,4 km/h (2 Bft) 97 %
19.05.2022 22:00 20,0 C 20,0 C 20,2 C 75 % 1019,4 hPa 0,0 l/m 0,0 km/h (0 Bft) O-SO 112 0 min 0,000 mm 0 W/m 15,4 C 20,0 C 8,0 km/h (2 Bft) 98 %
19.05.2022 22:10 19,8 C 19,8 C 20,0 C 75 % 1019,7 hPa 0,0 l/m 0,0 km/h (0 Bft) O-SO 112 0 min 0,000 mm 0 W/m 15,2 C 19,8 C 3,2 km/h (1 Bft) 97 %
19.05.2022 22:20 19,8 C 19,8 C 19,8 C 75 % 1019,4 hPa 0,0 l/m 0,0 km/h (0 Bft) SO 135 0 min 0,000 mm 0 W/m 15,2 C 19,8 C 9,7 km/h (2 Bft) 97 %
19.05.2022 22:30 19,6 C 19,6 C 19,8 C 76 % 1019,4 hPa 0,0 l/m 0,0 km/h (0 Bft) O-SO 112 0 min 0,000 mm 0 W/m 15,2 C 19,6 C 6,4 km/h (2 Bft) 97 %
19.05.2022 22:40 19,6 C 19,6 C 19,6 C 76 % 1019,6 hPa 0,0 l/m 0,0 km/h (0 Bft) N 0 0 min 0,000 mm 0 W/m 15,2 C 19,6 C 0,0 km/h (0 Bft) 98 %
19.05.2022 22:50 19,5 C 19,5 C 19,6 C 76 % 1019,6 hPa 0,0 l/m 0,0 km/h (0 Bft) N 0 0 min 0,000 mm 0 W/m 15,2 C 19,5 C 0,0 km/h (0 Bft) 98 %
19.05.2022 23:00 19,4 C 19,4 C 19,5 C 76 % 1020,0 hPa 0,0 l/m 0,0 km/h (0 Bft) N 0 0 min 0,025 mm 0 W/m 15,1 C 19,4 C 0,0 km/h (0 Bft) 98 %
19.05.2022 23:10 19,1 C 19,1 C 19,4 C 77 % 1020,2 hPa 0,0 l/m 0,0 km/h (0 Bft) N 0 0 min 0,000 mm 0 W/m 15,0 C 19,1 C 0,0 km/h (0 Bft) 98 %
19.05.2022 23:20 19,0 C 19,0 C 19,1 C 78 % 1020,0 hPa 0,0 l/m 0,0 km/h (0 Bft) N 0 0 min 0,000 mm 0 W/m 15,1 C 19,0 C 0,0 km/h (0 Bft) 98 %
19.05.2022 23:30 18,8 C 18,8 C 19,0 C 79 % 1019,9 hPa 0,0 l/m 0,0 km/h (0 Bft) N 0 0 min 0,000 mm 0 W/m 15,1 C 18,8 C 0,0 km/h (0 Bft) 97 %
19.05.2022 23:40 18,7 C 18,7 C 18,8 C 81 % 1020,4 hPa 0,0 l/m 0,0 km/h (0 Bft) N 360 0 min 0,000 mm 0 W/m 15,4 C 18,7 C 1,6 km/h (1 Bft) 97 %
19.05.2022 23:50 18,6 C 18,6 C 18,7 C 83 % 1020,5 hPa 0,0 l/m 1,6 km/h (1 Bft) NW 315 0 min 0,000 mm 0 W/m 15,7 C 18,6 C 11,3 km/h (2 Bft) 98 %
_ Min-Zeit 06:00 06:00 06:00 16:00 17:00 - 00:00 - - - - - 06:40 05:50 00:10 05:10
Minimum _ 13,0 C 13,0 C 13,1 C 45 % 1016,2 hPa - 0,0 km/h (0 Bft) - - - - - 9,5 C 13,1 C 0,0 km/h (0 Bft) 91 %
_ Max-Zeit 16:30 16:40 16:30 23:50 23:50 00:00 18:10 - - 12:30 14:00 15:20 16:20 16:30 20:30 00:00
Maximum _ 30,9 C 30,7 C 30,9 C 83 % 1020,5 hPa 0,0 l/m 7,6 km/h
S (2 Bft)
- - 20 min 0,534 mm 895 W/m 18,5 C 30,9 C 37,0 km/h
W-NW (5 Bft)
100 %
Durchschnitt _ 22,0 C 21,9 C 22,2 C 62 % 1018,5 hPa #0,0 l/m 0,7 km/h (0 Bft) S-SW - #10:20 h #4,724 mm 462 W/m 14,1 C 22,0 C 6,0 km/h (2 Bft) 99 %
PRIVATE WETTERSTATION BILLIGHEIM-ALLFELD - www.neckar-odenwald-wetter.de - Holger Sonntag